Regional Weather Roundup
Issued by NWS

Home | Current Version | Previous Version | Text Only | Print | Product List | Glossary Off
Versions: 1 2 3 4 5 6 7 8 9 10 11 12 13 14 15 16 17 18 19 20 21 22 23 24 25 26 27 28 29 30 31 32 33 34 35 36 37 38 39 40 41 42 43 44 45 46 47 48 49 50

000
ASUS43 KFSD 252302
RWRSD

WEATHER ROUNDUP FOR SOUTH DAKOTA
NATIONAL WEATHER SERVICE SIOUX FALLS SD
600 PM CDT THU AUG 25 2016

NOTE: "FAIR" INDICATES FEW OR NO CLOUDS BELOW 12,000 FEET WITH NO
SIGNIFICANT WEATHER AND/OR OBSTRUCTIONS TO VISIBILITY.


SDZ001>005-009-010-012>017-260000-
NORTHWEST AND NORTH CENTRAL SOUTH DAKOTA

CITY           SKY/WX    TMP DP  RH WIND       PRES   REMARKS
FAITH            N/A     66  44  45 N10       30.19F
MOBRIDGE       MOSUNNY   69  48  47 NW8       30.15S
$$

SDZ012>016-024>037-041>051-057-063-072>074-260000-
SOUTHWEST AND SOUTH CENTRAL SOUTH DAKOTA

CITY           SKY/WX    TMP DP  RH WIND       PRES   REMARKS
RAPID CTY ARPT SUNNY     69  40  34 NW8       30.21F
PIERRE         SUNNY     70  46  42 N13       30.14F
CUSTER         CLOUDY    55  46  71 E8        30.28S
ELLSWORTH AFB  SUNNY     69  40  35 VRB5      30.20F
PHILIP         MOSUNNY   73  42  32 NW8       30.17F
PINE RIDGE     SUNNY     66  48  52 CALM      30.23F
WINNER         FAIR      74  46  36 NW14      30.18S
$$

SDZ004>011-016>023-039-040-260000-
NORTHEAST SOUTH DAKOTA

CITY           SKY/WX    TMP DP  RH WIND       PRES   REMARKS
ABERDEEN       CLOUDY    66  51  58 NW8       30.14S
WATERTOWN      MOSUNNY   67  51  56 W10       30.13S
BROOKINGS      SUNNY     69  51  52 NW14      30.12S
$$

SDZ017-020-022-023-036>040-048>070-260000-
SOUTHEAST SOUTH DAKOTA

CITY           SKY/WX    TMP DP  RH WIND       PRES   REMARKS
SIOUX FALLS    MOSUNNY   74  54  49 NW8       30.13S
HURON          MOSUNNY   74  48  39 NW12G20   30.12S
CHAMBERLAIN    MOSUNNY   75  49  39 N6        30.15S
MITCHELL       SUNNY     74  48  39 W13       30.13F
YANKTON        SUNNY     75  52  43 NW9       30.12F
$$

ABBREVIATIONS USED IN REMARKS
   TC - TEMPERATURE IN CELSIUS
  WCI - WIND CHILL INDEX
   HX - HEAT INDEX
  VSB - VISIBILITY





USA.gov is the U.S. government's official web portal to all federal, state and local government web resources and services.